TIANHUI 2-02A (49071 NORAD) Tracking and Keplerian Element Data

This shows tracking and keplerian element data for the satellite.

Feedback or suggestion? Click here.




ElementValue
Catalog49071
NameTIANHUI 2-02A
Epoch Orbit468
Epoch Day261.78834052
Epoch Year2021
RAAN265.3143
Inclination97.4534
Eccentricity0.0001654
Argument of Perigee79.7588
Mean Anonmoly24.131
Mean Motion15.16770225
Decay Rate5.87E-06
L11 49071U 21074A 21261.78834052 .00000587 00000-0 33274-4 0 9997
L22 49071 97.4534 265.3143 0001654 79.7588 24.1310 15.16770225 4684

Live tracking and technical data element details for TIANHUI 2-02A (NORAD 49071). TIANHUI 2-02A can be tracked NOW for your location showing map with azimuth and elevation plus other details from your city location.

Track the satellite on the map from your city or location and see movement details for azimuth, elevation, latitude, longitude, range, height, and movement on the map or in text.







IsCatalogInMostPopularTable: catalog: 49071, numindb: 3
Update: records affected: 1



GetName: 49071 TIANHUI 2-02A

Hit Count: updated at: Fri, 24 Sep 2021 18:36:19 GMT